Regional Weather Roundup
Issued by NWS

Home | Current Version | Previous Version | Text Only | Print | Product List | Glossary On
Versions: 1 2 3 4 5 6 7 8 9 10 11 12 13 14 15 16 17 18 19 20 21 22 23 24 25 26 27 28 29 30 31 32 33 34 35 36 37 38 39 40 41 42 43 44 45 46 47 48 49 50
000
ASUS43 KDTX 202310
RWRMI
MICHIGAN HOURLY REGIONAL WEATHER ROUNDUP
NATIONAL WEATHER SERVICE DETROIT/PONTIAC MI
600 PM EST SAT JAN 20 2018

NOTE: "FAIR" INDICATES FEW OR NO CLOUDS BELOW 12,000 FEET WITH NO
SIGNIFICANT WEATHER AND/OR OBSTRUCTION TO VISIBILITY.

MIZ047>049-052>055-059>063-066>070-074>076-081>083-210000-
SOUTHEAST LOWER MICHIGAN

CITY           SKY/WX    TMP DP  RH WIND       PRES   REMARKS
ADRIAN         FAIR      35  30  82 SW9       30.00R WCI  28
ALMA           FAIR      38  33  82 SW3       29.96R
ANN ARBOR      FAIR      36  29  75 S7        29.98R WCI  30
BAD AXE        FAIR      36  30  79 SW3       29.95R
CARO           FAIR      37  31  78 SW5       29.95R WCI  33
DETROIT CITY   FAIR      38  29  70 SW9       29.98R WCI  31
DETROIT        MOCLDY    36  29  75 SW10      29.99R WCI  28
FLINT          FAIR      38  28  67 SW6       29.98R WCI  33
GROSSE ILE     FAIR      37  30  78 SW5       29.99R WCI  33
HILLSDALE      FAIR      36  30  80 S6        29.98R WCI  31
HOWELL         FAIR      38  30  74 SW3       29.97R

CITY           SKY/WX    TMP DP  RH WIND       PRES   REMARKS
JACKSON        FAIR      35  29  78 SW7       29.98R WCI  29
LAMBERTVILLE   FAIR      38  30  75 SW6       30.01R WCI  33
LANSING        FAIR      39  30  70 S7        29.98R WCI  34
LAPEER         FAIR      39  29  67 SW3       29.97R
MASON          FAIR      37  28  70 CALM      29.98R
MONROE         FAIR      36  29  75 SW6       30.00R WCI  32
MT. CLEMENS    MOCLDY    40  26  57 SW9       29.96S WCI  34
PONTIAC        MOCLDY    41  30  65 SW5       29.96R
PORT HOPE        N/A     36  30  79 CALM      29.93R
PORT HURON     FAIR      36  27  69 S5        29.97R WCI  32
TRI CITIES     FAIR      38  32  79 SW7       29.96R WCI  33
MIDLAND        FAIR      40  32  74 S3        29.95R
TROY           FAIR      40  30  68 SW6       29.99S
SAGINAW HB     FAIR      36  32  87 SW7       29.96R WCI  30
$$
MIZ043>046-050>051-056>058-064>065-071>073-077>080-210000-
SOUTHWEST LOWER MICHIGAN

CITY           SKY/WX    TMP DP  RH WIND       PRES   REMARKS
BATTLE CREEK   FAIR      37  30  75 S7        29.99R WCI  32
BENTON HARBOR  FAIR      40  31  70 S6        29.99R
BIG RAPIDS     FAIR      41  30  64 SW7       29.94R
COLDWATER      FAIR      37  32  82 SW6       29.99R WCI  32
FREMONT        FAIR      37  27  68 S5        29.96R WCI  33
HOLLAND        FAIR      36  29  75 SW5       29.99R WCI  32
GRAND RAPIDS   FAIR      38  30  73 W7        29.98R WCI  33
IONIA          FAIR      37  30  77 SW6       29.96R WCI  32
KALAMAZOO      FAIR      38  30  73 S5        29.99R WCI  34
LUDINGTON      FAIR      35  33  94 SW5       29.94R WCI  30
MARSHALL       FAIR      36  29  75 SW6       29.98R WCI  32
MOUNT PLEASANT FAIR      42  32  67 SW5       29.94R
MUSKEGON       MOCLDY    36  31  82 S5        29.98R WCI  32
SOUTH HAVEN    FAIR      40  30  68 S3        29.99R
$$
MIZ016>042-210000-
NORTHERN LOWER MICHIGAN

CITY           SKY/WX    TMP DP  RH WIND       PRES   REMARKS
ALPENA         CLOUDY    40  31  70 NW3       29.93R
BEAVER ISLAND  CLOUDY    35  32  87 SW5       29.93R WCI  31
BELLAIRE       CLOUDY    35  32  89 CALM      29.93R
CADILLAC       FAIR      39  29  69 SW3       29.91R
CHARLEVOIX     CLOUDY    37  32  82 CALM      29.96R
FRANKFORT      FAIR      37  33  89 CALM      29.93S
GAYLORD        CLOUDY    36  31  82 CALM      29.91R
GRAYLING       FAIR      37  29  72 CALM      29.93R
HARBOR SPRINGS CLOUDY    33  32  94 CALM      29.93R
HOUGHTON LAKE  FAIR      36  29  75 CALM      29.92R
MANISTEE       FAIR      35  32  88 W3        29.94R
OSCODA         FAIR      39  29  67 S9        29.93R WCI  33
PELLSTON       CLOUDY    36  31  82 W5        29.93R WCI  32
ROGERS CITY    CLOUDY    38  30  72 W3        29.93R
TRAVERSE CITY  CLOUDY    38  31  76 CALM      29.92R
$$
MIZ007>008-015-210000-
EASTERN UPPER MICHIGAN

CITY           SKY/WX    TMP DP  RH WIND       PRES   REMARKS
KINROSS        CLOUDY    37  29  72 SW7       29.90R WCI  32
MACKINAC ISLAN FAIR      34  31  90 SW7       29.91R WCI  28
NEWBERRY       MOCLDY    34  33  95 CALM      29.89R
S. S. MARIE    CLOUDY    39  31  72 W5        29.88R
MUNISING         N/A     36  32  85 SW5       29.89R WCI  32
$$
MIZ004>006-011>014-085-210000-
CENTRAL UPPER MICHIGAN

CITY           SKY/WX    TMP DP  RH WIND       PRES   REMARKS
MANISTIQUE     FAIR      34  32  93 CALM      29.90S
ESCANABA       CLOUDY    34  30  85 CALM      29.91R
MENOMINEE      CLOUDY    39  29  67 CALM      29.93R
SAWYER-GWINN   MOCLDY    36  28  75 S9        29.87R WCI  29
$$
MIZ001>003-009>011-084-210000-
WESTERN UPPER MICHIGAN

CITY           SKY/WX    TMP DP  RH WIND       PRES   REMARKS
IRON MOUNTAIN  CLOUDY    36  30  79 CALM      29.87R
HOUGHTON       FAIR      35  28  75 W5        29.84R WCI  31
COPPER HARBOR    N/A     34  30  85 CALM      29.85R
IRONWOOD       MOCLDY    39  29  67 SW3       29.86R
$$

ABBREVIATIONS USED IN REMARKS
   TC - TEMPERATURE IN CELSIUS
  WCI - WIND CHILL INDEX
   HX - HEAT INDEX
  VSB - VISIBILITY





USA.gov is the U.S. government's official web portal to all federal, state and local government web resources and services.